This is the latest recevied weather packets stored in our database for station/object W4TJP. If no packets are shown the sender has not sent any weather packets the latest 10 day(s).
| Time | Temp. | Humidity | Pressure | Rain* | Wind** | Luminosity | Snow |
|---|---|---|---|---|---|---|---|
| 1777701928 | 6.11° C | 84% | 1015.7 hPa | 0 mm | - | 0 W/m² | - |
| 1777701625 | 6.11° C | 84% | 1015.6 hPa | 0 mm | - | 0 W/m² | - |
| 1777701322 | 6.11° C | 84% | 1015.7 hPa | 0 mm | - | 0 W/m² | - |
| 1777701021 | 6.11° C | 84% | 1015.8 hPa | 0 mm | - | 0 W/m² | - |
| 1777700719 | 6.67° C | 82% | 1015.8 hPa | 0 mm | - | 0 W/m² | - |
| 1777700416 | 6.67° C | 81% | 1015.6 hPa | 0 mm | - | 0 W/m² | - |
| 1777700113 | 6.67° C | 79% | 1015.4 hPa | 0 mm | - | 0 W/m² | - |
| 1777699811 | 6.67° C | 78% | 1015.7 hPa | 0 mm | - | 0 W/m² | - |
| 1777699509 | 6.67° C | 77% | 1015.5 hPa | 0 mm | - | 0 W/m² | - |
| 1777699207 | 7.22° C | 77% | 1015.3 hPa | 0 mm | - | 0 W/m² | - |
| 1777698905 | 7.22° C | 77% | 1015.5 hPa | 0 mm | - | 0 W/m² | - |
| 1777698601 | 7.22° C | 78% | 1015.5 hPa | 0 mm | - | 0 W/m² | - |
| 1777698297 | 7.78° C | 75% | 1015.6 hPa | 0 mm | - | 0 W/m² | - |
| 1777697995 | 7.78° C | 76% | 1015.8 hPa | 0 mm | - | 0 W/m² | - |
| 1777697692 | 7.78° C | 77% | 1015.3 hPa | 0 mm | - | 0 W/m² | - |
| 1777697389 | 7.78° C | 79% | 1015.4 hPa | 0 mm | - | 0 W/m² | - |
| 1777697084 | 7.78° C | 77% | 1015.2 hPa | 0 mm | - | 0 W/m² | - |
| 1777696782 | 7.78° C | 78% | 1015.3 hPa | 0 mm | - | 0 W/m² | - |
| 1777696479 | 7.78° C | 77% | 1015.3 hPa | 0 mm | - | 0 W/m² | - |
| 1777696178 | 7.78° C | 77% | 1015.5 hPa | 0 mm | - | 0 W/m² | - |
| 1777695876 | 7.78° C | 76% | 1015.4 hPa | 0 mm | - | 0 W/m² | - |
| 1777695573 | 7.78° C | 77% | 1015.6 hPa | 0 mm | - | 0 W/m² | - |
| 1777695271 | 7.78° C | 75% | 1015.4 hPa | 0 mm | - | 0 W/m² | - |
| 1777694968 | 7.78° C | 74% | 1015.6 hPa | 0 mm | - | 0 W/m² | - |
| 1777694664 | 7.78° C | 74% | 1015.7 hPa | 0 mm | - | 0 W/m² | - |
* Rain latest hour (hover to see other rain measurements)
** Current wind speed in m/s (hover to see current wind gust speed)